Location: Ostrava
(49.8330°N, 18.2830°E)
Time: 01:26:15
(UTC+02:00)

Envisat - Pass Details

Date: 21 January 2022
Orbit: 764 x 765 km, 98.2° (Epoch: 22 May)

Event Time Altitude Azimuth Distance (km) Brightness Sun altitude
Rises 05:01:33 0° 13° (NNE) 3,242 6.4 -24.1°
Reaches altitude 10° 05:03:52 10° 12° (NNE) 2,312 5.6 -23.7°
Maximum altitude 05:08:57 78° 287° (WNW) 786 2.8 -22.9°
Drops below altitude 10° 05:14:01 10° 201° (SSW) 2,296 5.3 -22.1°
Sets 05:16:18 0° 200° (SSW) 3,218 6.1 -21.7°
